TimeCDT,TemperatureF,Dew PointF,Humidity,Sea Level PressureIn,VisibilityMPH,Wind Direction,Wind SpeedMPH,Gust SpeedMPH,PrecipitationIn,Events,Conditions,WindDirDegrees,DateUTC
12:53 AM,48.0,36.0,63,29.93,10.0,North,15.0,-,N/A,,Clear,10,2013-10-21 05:53:00
1:53 AM,46.9,35.1,63,29.94,10.0,North,13.8,-,N/A,,Clear,10,2013-10-21 06:53:00
2:53 AM,46.0,35.1,66,29.96,10.0,North,15.0,-,N/A,,Clear,360,2013-10-21 07:53:00
3:53 AM,45.0,35.1,68,29.98,10.0,North,12.7,-,N/A,,Clear,360,2013-10-21 08:53:00
4:53 AM,44.1,34.0,68,29.99,10.0,North,13.8,-,N/A,,Clear,360,2013-10-21 09:53:00
5:53 AM,42.1,34.0,73,30.01,10.0,North,9.2,-,N/A,,Clear,350,2013-10-21 10:53:00
6:53 AM,43.0,35.1,74,30.05,10.0,North,12.7,-,N/A,,Clear,360,2013-10-21 11:53:00
7:53 AM,43.0,35.1,74,30.08,10.0,North,15.0,-,N/A,,Clear,350,2013-10-21 12:53:00
8:53 AM,43.0,35.1,74,30.11,10.0,North,12.7,-,N/A,,Clear,350,2013-10-21 13:53:00
9:53 AM,48.9,37.0,64,30.12,10.0,NNE,16.1,21.9,N/A,,Scattered Clouds,20,2013-10-21 14:53:00
10:53 AM,52.0,37.0,57,30.14,10.0,NNE,15.0,-,N/A,,Clear,20,2013-10-21 15:53:00
11:53 AM,53.1,35.1,50,30.16,10.0,NNE,16.1,20.7,N/A,,Overcast,20,2013-10-21 16:53:00
12:53 PM,57.0,34.0,42,30.15,10.0,NNE,15.0,20.7,N/A,,Clear,30,2013-10-21 17:53:00
1:53 PM,57.9,33.1,39,30.12,10.0,NE,10.4,19.6,N/A,,Clear,50,2013-10-21 18:53:00
2:53 PM,60.1,33.1,36,30.10,10.0,North,11.5,-,N/A,,Clear,10,2013-10-21 19:53:00
3:53 PM,61.0,28.9,30,30.09,10.0,NNW,6.9,-,N/A,,Clear,340,2013-10-21 20:53:00
4:53 PM,61.0,27.0,27,30.09,10.0,NNW,6.9,-,N/A,,Clear,340,2013-10-21 21:53:00
5:53 PM,60.1,28.0,30,30.10,10.0,North,5.8,-,N/A,,Clear,10,2013-10-21 22:53:00
6:53 PM,57.0,28.9,34,30.11,10.0,NW,3.5,-,N/A,,Clear,320,2013-10-21 23:53:00
7:53 PM,53.1,28.9,40,30.14,10.0,Calm,Calm,-,N/A,,Clear,0,2013-10-22 00:53:00
8:53 PM,51.1,28.9,43,30.15,10.0,SSE,3.5,-,N/A,,Clear,160,2013-10-22 01:53:00
9:53 PM,46.0,28.0,50,30.15,10.0,South,6.9,-,N/A,,Clear,180,2013-10-22 02:53:00
10:53 PM,44.1,27.0,51,30.16,10.0,South,5.8,-,N/A,,Clear,190,2013-10-22 03:53:00
11:53 PM,41.0,27.0,57,30.17,10.0,SSW,6.9,-,N/A,,Clear,210,2013-10-22 04:53:00